Home > Weather > Vreden > Past weeks

Flag for Germany Past Weather in Vreden, North Rhine-Westphalia, Germany — Yesterday and Last 2 Weeks

Now
74 °F

Overcast.


Feels Like: 75 °F
Forecast: 55 / 73 °F
Wind: 7 mph from West

Location: Twenthe

Current Time: Jul 25, 2016 at 5:57:55 PM

Latest Report: Jul 25, 2016 at 5:00 PM


Visibility: 10 mi

Pressure: 30.08 "Hg

Humidity: 73%

Dew Point: 64 °F

Location of VredenLocation

Past Weather in Vreden — Graph

°F

Vreden Temperature Yesterday

Maximum temperature yesterday: 80 °F (at 5:00 PM)
Minimum temperature yesterday: 62 °F (at 3:00 AM)
Average temperature yesterday: 69 °F

High & Low Weather Summary for the Past Weeks

 TemperatureHumidityPressure
High92 °F (Jul 20, 4:00 PM)100% (Jul 13, 1:00 AM)30.27 "Hg (Jul 13, 1:00 AM)
Low48 °F (Jul 14, 3:00 AM)23% (Jul 19, 4:00 PM)29.74 "Hg (Jul 10, 8:00 PM)
Average67 °F78%30.05 "Hg
* Reported Jul 10 5:00 PM — Jul 25 4:00 PM, Vreden, Weather by CustomWeather, © 2016

Note: Actual official high and low records may vary slightly from our data, if they occured in-between our weather recording intervals... More about our weather records

Advertising

Vreden Weather History for the Previous 24 Hours

Scroll right to see more
 ConditionsComfort  
Time TempWeatherWind HumidityBarometerVisibility
4:00 PM
Mon, Jul 25
77 °FOvercast.6 mph67%30.07 "Hg14 mi
3:00 PM74 °FOvercast.7 mph72%30.08 "Hg19 mi
2:00 PM73 °FOvercast.5 mph75%30.08 "Hg19 mi
1:00 PM73 °FOvercast.5 mph74%30.08 "Hg22 mi
12:00 PM74 °FOvercast.5 mph71%30.07 "Hg18 mi
11:00 AM73 °FOvercast.5 mph74%30.08 "Hg12 mi
10:00 AM71 °FOvercast.5 mph74%30.07 "Hg9 mi
8:00 AM67 °FOvercast.1 mph93%30.07 "Hg4 mi
7:00 AM62 °FLow clouds.1 mph100%30.07 "Hg0 mi
6:00 AM60 °FLow clouds.1 mph99%30.07 "Hg0 mi
5:00 AM62 °FLow clouds.1 mph100%30.07 "Hg0 mi
4:00 AM62 °FPassing clouds.No wind99%30.07 "Hg0 mi
3:00 AM64 °FPassing clouds.1 mph100%30.08 "Hg1 mi
2:00 AM64 °FPassing clouds.1 mph100%30.08 "Hg2 mi
1:00 AM64 °FOvercast.No wind100%30.08 "Hg1 mi
12:00 AM65 °FOvercast.No wind100%30.08 "Hg3 mi
11:00 PM
Sun, Jul 24
65 °FFog.No wind99%30.08 "Hg4 mi
10:00 PM68 °FFog.No wind93%30.08 "Hg4 mi
9:00 PM73 °FScattered clouds.2 mph78%30.06 "Hg15 mi
8:00 PM78 °FOvercast.2 mph64%30.06 "Hg19 mi
7:00 PM79 °FOvercast.2 mph58%30.06 "Hg15 mi
6:00 PM79 °FOvercast.2 mph61%30.07 "Hg14 mi
5:00 PM80 °FOvercast.2 mph62%30.08 "Hg12 mi
Weather by CustomWeather, © 2016

See weather overviewHow to use our weather pages